| time (UTC) | temp F | wind direction | speed MPH | gust MPH | rain 1hr in | rain 24hr in | rain mn in | humidity % | barometer mb |
| 20260507165750 | 66 | 273 | 11.0 | 12.0 | 0.00 | 0.00 | 0.00 | 33 | 1009.4 |
| 20260507165246 | 66 | 274 | 13.0 | 15.0 | 0.00 | 0.00 | 0.00 | 33 | 1009.4 |
| 20260507164742 | 65 | 293 | 15.0 | 21.0 | 0.00 | 0.00 | 0.00 | 34 | 1009.4 |
| 20260507164239 | 64 | 277 | 11.0 | 18.0 | 0.00 | 0.00 | 0.00 | 34 | 1009.7 |
| 20260507163736 | 64 | 269 | 11.0 | 19.0 | 0.00 | 0.00 | 0.00 | 34 | 1009.4 |
| 20260507163234 | 65 | 281 | 12.0 | 17.0 | 0.00 | 0.00 | 0.00 | 34 | 1009.9 |
| 20260507162730 | 65 | 289 | 12.0 | 13.0 | 0.00 | 0.00 | 0.00 | 33 | 1009.6 |
| 20260507162226 | 66 | 285 | 9.0 | 22.0 | 0.00 | 0.00 | 0.00 | 32 | 1009.6 |
| 20260507161723 | 66 | 305 | 13.0 | 20.0 | 0.00 | 0.00 | 0.00 | 31 | 1009.3 |
| 20260507161219 | 66 | 290 | 9.0 | 17.0 | 0.00 | 0.00 | 0.00 | 32 | 1009.7 |
| 20260507160715 | 66 | 303 | 11.0 | 21.0 | 0.00 | 0.00 | 0.00 | 32 | 1009.7 |
| 20260507160212 | 66 | 285 | 12.0 | 20.0 | 0.00 | 0.00 | 0.00 | 32 | 1009.9 |
| 20260507155708 | 65 | 303 | 9.0 | 16.0 | 0.00 | 0.00 | 0.00 | 33 | 1009.7 |
| 20260507155204 | 65 | 288 | 8.0 | 17.0 | 0.00 | 0.00 | 0.00 | 33 | 1009.7 |
| 20260507154701 | 65 | 290 | 15.0 | 18.0 | 0.00 | 0.00 | 0.00 | 33 | 1009.9 |
| 20260507154159 | 64 | 295 | 15.0 | 17.0 | 0.00 | 0.00 | 0.00 | 34 | 1009.9 |
| 20260507153655 | 64 | 273 | 13.0 | 17.0 | 0.00 | 0.00 | 0.00 | 34 | 1009.9 |
| 20260507153151 | 64 | 284 | 10.0 | 22.0 | 0.00 | 0.00 | 0.00 | 34 | 1010.1 |
| 20260507152648 | 64 | 281 | 13.0 | 22.0 | 0.00 | 0.00 | 0.00 | 34 | 1010.2 |
| 20260507152144 | 64 | 276 | 20.0 | 22.0 | 0.00 | 0.00 | 0.00 | 34 | 1010.2 |
| 20260507151640 | 62 | 273 | 17.0 | 17.0 | 0.00 | 0.00 | 0.00 | 37 | 1010.1 |
| 20260507151137 | 61 | 283 | 11.0 | 18.0 | 0.00 | 0.00 | 0.00 | 38 | 1010.2 |
| 20260507150634 | 62 | 296 | 10.0 | 15.0 | 0.00 | 0.00 | 0.00 | 38 | 1010.3 |
| 20260507150131 | 62 | 286 | 9.0 | 17.0 | 0.00 | 0.00 | 0.00 | 38 | 1010.8 |
| 20260507145626 | 60 | 286 | 11.0 | 15.0 | 0.00 | 0.00 | 0.00 | 40 | 1010.7 |
| 20260507145124 | 59 | 297 | 13.0 | 16.0 | 0.00 | 0.00 | 0.00 | 40 | 1010.5 |
| 20260507144620 | 57 | 285 | 8.0 | 15.0 | 0.00 | 0.00 | 0.00 | 43 | 1010.8 |
| 20260507144119 | 56 | 294 | 8.0 | 17.0 | 0.00 | 0.00 | 0.00 | 44 | 1010.9 |
| 20260507143615 | 57 | 291 | 8.0 | 13.0 | 0.00 | 0.00 | 0.00 | 43 | 1010.7 |
| 20260507143112 | 57 | 276 | 6.0 | 14.0 | 0.00 | 0.00 | 0.00 | 42 | 1010.7 |
| 20260507142607 | 56 | 274 | 8.0 | 17.0 | 0.00 | 0.00 | 0.00 | 42 | 1010.8 |
| 20260507142105 | 57 | 286 | 6.0 | 16.0 | 0.00 | 0.00 | 0.00 | 42 | 1011.0 |
| 20260507141601 | 56 | 272 | 10.0 | 15.0 | 0.00 | 0.00 | 0.00 | 43 | 1010.9 |
| 20260507141057 | 55 | 255 | 6.0 | 9.0 | 0.00 | 0.00 | 0.00 | 45 | 1010.9 |
| 20260507140554 | 54 | 276 | 12.0 | 17.0 | 0.00 | 0.00 | 0.00 | 45 | 1010.9 |
| 20260507140051 | 54 | 286 | 5.0 | 16.0 | 0.00 | 0.00 | 0.00 | 45 | 1011.1 |
| 20260507135548 | 54 | 276 | 7.0 | 14.0 | 0.00 | 0.00 | 0.00 | 46 | 1010.9 |
| 20260507135046 | 54 | 285 | 10.0 | 15.0 | 0.00 | 0.00 | 0.00 | 46 | 1010.9 |
| 20260507134542 | 53 | 296 | 11.0 | 16.0 | 0.00 | 0.00 | 0.00 | 48 | 1011.0 |
| 20260507134038 | 52 | 301 | 8.0 | 12.0 | 0.00 | 0.00 | 0.00 | 49 | 1011.1 |
| 20260507133534 | 51 | 294 | 6.0 | 15.0 | 0.00 | 0.00 | 0.00 | 51 | 1011.2 |
| 20260507133032 | 51 | 307 | 7.0 | 14.0 | 0.00 | 0.00 | 0.00 | 51 | 1010.8 |
| 20260507132528 | 50 | 291 | 4.0 | 14.0 | 0.00 | 0.00 | 0.00 | 54 | 1011.0 |
| 20260507132025 | 49 | 315 | 4.0 | 7.0 | 0.00 | 0.00 | 0.00 | 54 | 1011.1 |
| 20260507131522 | 48 | 309 | 6.0 | 11.0 | 0.00 | 0.00 | 0.00 | 57 | 1011.3 |
| 20260507131019 | 47 | 316 | 2.0 | 4.0 | 0.00 | 0.00 | 0.00 | 62 | 1011.3 |
| 20260507130516 | 46 | 332 | 2.0 | 3.0 | 0.00 | 0.00 | 0.00 | 62 | 1011.2 |
| 20260507130014 | 47 | 355 | 2.0 | 4.0 | 0.00 | 0.00 | 0.00 | 61 | 1011.4 |
| 20260507125512 | 47 | 296 | 3.0 | 4.0 | 0.00 | 0.00 | 0.00 | 60 | 1011.3 |
| 20260507125011 | 47 | 301 | 4.0 | 7.0 | 0.00 | 0.00 | 0.00 | 60 | 1011.3 |
| 20260507124506 | 46 | 282 | 6.0 | 8.0 | 0.00 | 0.00 | 0.00 | 59 | 1011.2 |
| 20260507124004 | 46 | 297 | 4.0 | 8.0 | 0.00 | 0.00 | 0.00 | 59 | 1011.3 |
| 20260507123501 | 47 | 303 | 6.0 | 9.0 | 0.00 | 0.00 | 0.00 | 58 | 1011.4 |
| 20260507122957 | 46 | 287 | 6.0 | 9.0 | 0.00 | 0.00 | 0.00 | 60 | 1011.4 |
| 20260507122453 | 45 | 295 | 7.0 | 9.0 | 0.00 | 0.00 | 0.00 | 61 | 1011.7 |
| 20260507121949 | 45 | 299 | 11.0 | 11.0 | 0.00 | 0.00 | 0.00 | 61 | 1011.6 |
| 20260507121445 | 0 | 299 | 4.0 | 8.0 | 0.00 | 0.00 | 0.00 | 1011.7 | |
| 20260507120941 | 0 | 291 | 7.0 | 11.0 | 0.00 | 0.00 | 0.00 | 1011.7 | |
| 20260507120438 | 0 | 285 | 8.0 | 10.0 | 0.00 | 0.00 | 0.00 | 1011.4 | |
| 20260507115934 | 0 | 288 | 7.0 | 11.0 | 0.00 | 0.00 | 0.00 | 1011.7 | |
| 20260507115430 | 0 | 277 | 6.0 | 10.0 | 0.00 | 0.00 | 0.00 | 1012.0 | |
| 20260507114927 | 0 | 286 | 9.0 | 9.0 | 0.00 | 0.00 | 0.00 | 1012.0 | |
| 20260507114423 | 0 | 304 | 5.0 | 11.0 | 0.00 | 0.00 | 0.00 | 1012.2 | |
| 20260507113920 | 0 | 317 | 4.0 | 7.0 | 0.00 | 0.00 | 0.00 | 1012.2 | |
| 20260507113417 | 0 | 279 | 8.0 | 10.0 | 0.00 | 0.00 | 0.00 | 1012.1 | |
| 20260507112914 | 0 | 288 | 3.0 | 6.0 | 0.00 | 0.00 | 0.00 | 1012.2 | |
| 20260507112412 | 0 | 286 | 3.0 | 5.0 | 0.00 | 0.00 | 0.00 | 1012.5 | |
| 20260507111909 | 0 | 317 | 3.0 | 5.0 | 0.00 | 0.00 | 0.00 | 1012.5 | |
| 20260507111406 | 0 | 337 | 3.0 | 4.0 | 0.00 | 0.00 | 0.00 | 1012.5 | |
| 20260507110902 | 0 | 272 | 4.0 | 5.0 | 0.00 | 0.00 | 0.00 | 1012.5 | |
| 20260507110358 | 0 | 256 | 2.0 | 2.0 | 0.00 | 0.00 | 0.00 | 1012.6 | |
| 20260507105855 | 0 | 50 | 4.0 | 4.0 | 0.00 | 0.00 | 0.00 | 1012.6 | |
| 20260507105352 | 0 | 196 | 2.0 | 3.0 | 0.00 | 0.00 | 0.00 | 1012.4 | |
| 20260507104849 | 0 | 307 | 6.0 | 6.0 | 0.00 | 0.00 | 0.00 | 1012.5 | |
| 20260507104345 | 0 | 36 | 4.0 | 4.0 | 0.00 | 0.00 | 0.00 | 1012.6 | |
| 20260507103841 | 0 | 337 | 2.0 | 3.0 | 0.00 | 0.00 | 0.00 | 1012.8 | |
| 20260507103338 | 0 | 252 | 3.0 | 5.0 | 0.00 | 0.00 | 0.00 | 1012.8 | |
| 20260507102835 | 0 | 267 | 3.0 | 7.0 | 0.00 | 0.00 | 0.00 | 1012.8 | |
| 20260507102331 | 0 | 271 | 4.0 | 5.0 | 0.00 | 0.00 | 0.00 | 1012.6 | |
| 20260507101827 | 0 | 248 | 4.0 | 6.0 | 0.00 | 0.00 | 0.00 | 1012.7 | |
| 20260507101322 | 0 | 248 | 6.0 | 6.0 | 0.00 | 0.00 | 0.00 | 1012.8 | |
| 20260507100819 | 0 | 273 | 4.0 | 5.0 | 0.00 | 0.00 | 0.00 | 1012.9 | |
| 20260507100317 | 0 | 256 | 3.0 | 7.0 | 0.00 | 0.00 | 0.00 | 1013.1 | |
| 20260507095815 | 0 | 271 | 5.0 | 5.0 | 0.00 | 0.00 | 0.00 | 1012.8 | |
| 20260507095311 | 0 | 280 | 4.0 | 5.0 | 0.00 | 0.00 | 0.00 | 1013.3 | |
| 20260507094808 | 0 | 311 | 4.0 | 5.0 | 0.00 | 0.00 | 0.00 | 1013.0 | |
| 20260507094305 | 0 | 272 | 1.0 | 5.0 | 0.00 | 0.00 | 0.00 | 1013.1 | |
| 20260507093802 | 0 | 262 | 1.0 | 6.0 | 0.00 | 0.00 | 0.00 | 1013.1 | |
| 20260507093301 | 0 | 294 | 3.0 | 6.0 | 0.00 | 0.00 | 0.00 | 1012.8 | |
| 20260507092758 | 0 | 281 | 3.0 | 5.0 | 0.00 | 0.00 | 0.00 | 1013.0 | |
| 20260507092254 | 0 | 329 | 4.0 | 5.0 | 0.00 | 0.00 | 0.00 | 1012.9 | |
| 20260507091751 | 0 | 318 | 5.0 | 5.0 | 0.00 | 0.00 | 0.00 | 1013.1 | |
| 20260507091248 | 0 | 279 | 3.0 | 5.0 | 0.00 | 0.00 | 0.00 | 1013.0 | |
| 20260507090747 | 0 | 273 | 4.0 | 9.0 | 0.00 | 0.00 | 0.00 | 1013.1 | |
| 20260507090244 | 0 | 303 | 2.0 | 6.0 | 0.00 | 0.00 | 0.00 | 1013.0 | |
| 20260507085742 | 0 | 299 | 4.0 | 4.0 | 0.00 | 0.00 | 0.00 | 1013.5 | |
| 20260507085238 | 0 | 267 | 4.0 | 5.0 | 0.00 | 0.00 | 0.00 | 1013.4 | |
| 20260507084736 | 0 | 274 | 2.0 | 3.0 | 0.00 | 0.00 | 0.00 | 1013.3 | |
| 20260507084232 | 0 | 319 | 2.0 | 4.0 | 0.00 | 0.00 | 0.00 | 1013.4 | |
| 20260507083730 | 0 | 298 | 0.0 | 4.0 | 0.00 | 0.00 | 0.00 | 1013.4 | |
| 20260507083226 | 0 | 41 | 2.0 | 3.0 | 0.00 | 0.00 | 0.00 | 1013.4 | |
| 20260507082722 | 0 | 59 | 0.0 | 2.0 | 0.00 | 0.00 | 0.00 | 1013.3 | |
| 20260507082218 | 0 | 7 | 2.0 | 4.0 | 0.00 | 0.00 | 0.00 | 1013.4 | |
| 20260507081715 | 0 | 3 | 0.0 | 5.0 | 0.00 | 0.00 | 0.00 | 1013.4 | |
| 20260507081211 | 0 | 20 | 3.0 | 3.0 | 0.00 | 0.00 | 0.00 | 1013.6 | |
| 20260507080708 | 0 | 15 | 2.0 | 3.0 | 0.00 | 0.00 | 0.00 | 1013.6 | |
| 20260507080204 | 0 | 24 | 2.0 | 3.0 | 0.00 | 0.00 | 0.00 | 1013.6 | |
| 20260507075659 | 0 | 12 | 3.0 | 3.0 | 0.00 | 0.00 | 0.00 | 1013.8 | |
| 20260507075156 | 0 | 301 | 3.0 | 4.0 | 0.00 | 0.00 | 0.00 | 1013.8 | |
| 20260507074652 | 0 | 326 | 3.0 | 9.0 | 0.00 | 0.00 | 0.00 | 1013.8 | |
| 20260507074151 | 0 | 276 | 5.0 | 6.0 | 0.00 | 0.00 | 0.00 | 1013.7 | |
| 20260507073647 | 0 | 255 | 5.0 | 11.0 | 0.00 | 0.00 | 0.00 | 1013.9 | |
| 20260507073143 | 0 | 218 | 8.0 | 12.0 | 0.00 | 0.00 | 0.00 | 1013.9 | |
| 20260507072641 | 0 | 236 | 4.0 | 15.0 | 0.00 | 0.00 | 0.00 | 1013.9 | |
| 20260507072138 | 0 | 226 | 13.0 | 19.0 | 0.00 | 0.00 | 0.00 | 1013.9 | |
| 20260507071636 | 0 | 221 | 14.0 | 18.0 | 0.00 | 0.00 | 0.00 | 1013.9 | |
| 20260507071132 | 0 | 220 | 9.0 | 22.0 | 0.00 | 0.00 | 0.00 | 1013.7 | |
| 20260507070629 | 0 | 219 | 16.0 | 23.0 | 0.00 | 0.00 | 0.00 | 1013.5 | |
| 20260507070126 | 0 | 233 | 10.0 | 19.0 | 0.00 | 0.00 | 0.00 | 1013.9 | |
| 20260507065622 | 0 | 228 | 13.0 | 19.0 | 0.00 | 0.00 | 0.00 | 1014.2 | |
| 20260507065119 | 0 | 239 | 11.0 | 18.0 | 0.00 | 0.00 | 0.00 | 1014.2 | |
| 20260507064617 | 0 | 227 | 10.0 | 21.0 | 0.00 | 0.00 | 0.00 | 1014.2 | |
| 20260507064116 | 0 | 222 | 16.0 | 22.0 | 0.00 | 0.00 | 0.00 | 1014.0 | |
| 20260507063613 | 0 | 219 | 9.0 | 19.0 | 0.00 | 0.00 | 0.00 | 1014.3 | |
| 20260507063110 | 0 | 225 | 17.0 | 24.0 | 0.00 | 0.00 | 0.00 | 1014.4 | |
| 20260507062606 | 0 | 232 | 11.0 | 23.0 | 0.00 | 0.00 | 0.00 | 1014.4 | |
| 20260507062104 | 0 | 231 | 16.0 | 23.0 | 0.00 | 0.00 | 0.00 | 1014.4 | |
| 20260507061601 | 0 | 229 | 13.0 | 25.0 | 0.00 | 0.00 | 0.00 | 1014.3 | |
| 20260507061059 | 0 | 229 | 13.0 | 20.0 | 0.00 | 0.00 | 0.00 | 1014.3 | |
| 20260507060557 | 0 | 215 | 19.0 | 21.0 | 0.00 | 0.00 | 0.00 | 1014.4 | |
| 20260507060053 | 0 | 227 | 15.0 | 24.0 | 0.00 | 0.00 | 0.00 | 1014.4 | |
| 20260507055548 | 0 | 222 | 17.0 | 23.0 | 0.00 | 0.04 | 0.04 | 1014.5 | |
| 20260507055045 | 0 | 225 | 16.0 | 23.0 | 0.00 | 0.04 | 0.04 | 1014.4 | |
| 20260507054541 | 0 | 216 | 12.0 | 22.0 | 0.00 | 0.04 | 0.04 | 1014.2 | |
| 20260507054038 | 0 | 227 | 17.0 | 22.0 | 0.00 | 0.04 | 0.04 | 1013.7 | |
| 20260507053536 | 0 | 224 | 11.0 | 21.0 | 0.00 | 0.04 | 0.04 | 1014.4 | |
| 20260507053035 | 0 | 217 | 18.0 | 20.0 | 0.00 | 0.04 | 0.04 | 1014.4 | |
| 20260507052532 | 0 | 215 | 9.0 | 23.0 | 0.00 | 0.04 | 0.04 | 1014.3 | |
| 20260507052028 | 0 | 218 | 12.0 | 21.0 | 0.00 | 0.04 | 0.04 | 1014.4 | |
| 20260507051526 | 0 | 218 | 11.0 | 20.0 | 0.00 | 0.04 | 0.04 | 1014.6 | |
| 20260507051023 | 0 | 215 | 10.0 | 16.0 | 0.00 | 0.04 | 0.04 | 1014.5 | |
| 20260507050519 | 0 | 227 | 12.0 | 17.0 | 0.00 | 0.04 | 0.04 | 1014.4 | |
| 20260507050016 | 0 | 223 | 9.0 | 16.0 | 0.00 | 0.04 | 0.04 | 1014.6 | |
| 20260507045512 | 0 | 209 | 11.0 | 14.0 | 0.00 | 0.04 | 0.04 | 1014.7 | |
| 20260507045010 | 0 | 203 | 8.0 | 14.0 | 0.00 | 0.04 | 0.04 | 1014.7 | |
| 20260507044506 | 0 | 204 | 12.0 | 19.0 | 0.00 | 0.04 | 0.04 | 1014.8 | |
| 20260507044003 | 0 | 204 | 11.0 | 18.0 | 0.00 | 0.04 | 0.04 | 1014.7 | |
| 20260507043459 | 0 | 220 | 10.0 | 17.0 | 0.00 | 0.04 | 0.04 | 1015.1 | |
| 20260507042955 | 0 | 205 | 11.0 | 14.0 | 0.00 | 0.04 | 0.04 | 1015.0 | |
| 20260507042452 | 0 | 204 | 10.0 | 16.0 | 0.00 | 0.04 | 0.04 | 1014.8 | |
| 20260507041948 | 0 | 206 | 9.0 | 13.0 | 0.00 | 0.04 | 0.04 | 1015.1 | |
| 20260507041445 | 0 | 210 | 7.0 | 14.0 | 0.00 | 0.04 | 0.04 | 1015.1 | |
| 20260507040942 | 0 | 205 | 8.0 | 12.0 | 0.00 | 0.04 | 0.04 | 1015.1 | |
| 20260507040438 | 0 | 194 | 11.0 | 12.0 | 0.00 | 0.04 | 0.04 | 1015.4 | |
| 20260507035934 | 0 | 210 | 6.0 | 13.0 | 0.00 | 0.04 | 0.04 | 1015.4 | |
| 20260507035431 | 0 | 195 | 6.0 | 12.0 | 0.00 | 0.04 | 0.04 | 1015.4 | |
| 20260507034927 | 0 | 208 | 11.0 | 13.0 | 0.00 | 0.04 | 0.04 | 1015.4 | |
| 20260507034424 | 0 | 214 | 6.0 | 14.0 | 0.00 | 0.04 | 0.04 | 1015.5 | |
| 20260507033922 | 0 | 213 | 7.0 | 9.0 | 0.00 | 0.04 | 0.04 | 1015.5 | |
| 20260507033420 | 0 | 198 | 6.0 | 11.0 | 0.00 | 0.04 | 0.04 | 1015.6 | |
| 20260507032917 | 0 | 194 | 7.0 | 12.0 | 0.00 | 0.04 | 0.04 | 1015.7 | |
| 20260507032414 | 0 | 204 | 4.0 | 13.0 | 0.00 | 0.04 | 0.04 | 1015.5 | |
| 20260507031909 | 0 | 224 | 3.0 | 7.0 | 0.00 | 0.04 | 0.04 | 1015.6 | |
| 20260507031406 | 0 | 212 | 6.0 | 6.0 | 0.00 | 0.04 | 0.04 | 1015.5 | |
| 20260507030903 | 0 | 210 | 2.0 | 5.0 | 0.00 | 0.04 | 0.04 | 1015.5 | |
| 20260507030400 | 0 | 177 | 2.0 | 5.0 | 0.00 | 0.04 | 0.04 | 1015.5 | |
| 20260507025857 | 0 | 212 | 4.0 | 5.0 | 0.00 | 0.04 | 0.04 | 1015.5 | |
| 20260507025355 | 0 | 187 | 3.0 | 6.0 | 0.00 | 0.04 | 0.04 | 1015.5 | |
| 20260507024852 | 0 | 208 | 3.0 | 5.0 | 0.00 | 0.04 | 0.04 | 1015.3 | |
| 20260507024349 | 0 | 198 | 4.0 | 6.0 | 0.00 | 0.04 | 0.04 | 1015.3 | |
| 20260507023845 | 0 | 205 | 5.0 | 9.0 | 0.00 | 0.04 | 0.04 | 1015.0 | |
| 20260507023342 | 0 | 204 | 5.0 | 7.0 | 0.00 | 0.04 | 0.04 | 1015.1 | |
| 20260507022839 | 0 | 204 | 4.0 | 7.0 | 0.00 | 0.04 | 0.04 | 1014.8 | |
| 20260507022336 | 0 | 222 | 3.0 | 7.0 | 0.00 | 0.04 | 0.04 | 1015.0 | |
| 20260507021831 | 0 | 217 | 4.0 | 9.0 | 0.00 | 0.04 | 0.04 | 1015.0 | |
| 20260507021327 | 0 | 215 | 4.0 | 8.0 | 0.00 | 0.04 | 0.04 | 1014.8 | |
| 20260507020826 | 0 | 201 | 5.0 | 10.0 | 0.00 | 0.04 | 0.04 | 1014.7 | |
| 20260507020322 | 0 | 212 | 6.0 | 10.0 | 0.00 | 0.04 | 0.04 | 1014.6 | |
| 20260507015819 | 0 | 206 | 4.0 | 8.0 | 0.00 | 0.04 | 0.04 | 1014.5 | |
| 20260507015317 | 0 | 223 | 8.0 | 9.0 | 0.00 | 0.04 | 0.04 | 1014.5 | |
| 20260507014814 | 0 | 235 | 7.0 | 9.0 | 0.00 | 0.04 | 0.04 | 1014.7 | |
| 20260507014310 | 0 | 235 | 8.0 | 9.0 | 0.00 | 0.04 | 0.04 | 1014.7 | |
| 20260507013806 | 0 | 218 | 12.0 | 14.0 | 0.00 | 0.04 | 0.04 | 1014.6 | |
| 20260507013304 | 0 | 242 | 6.0 | 10.0 | 0.00 | 0.04 | 0.04 | 1014.7 | |
| 20260507012801 | 0 | 236 | 8.0 | 11.0 | 0.00 | 0.04 | 0.04 | 1014.4 | |
| 20260507012256 | 0 | 220 | 6.0 | 11.0 | 0.00 | 0.04 | 0.04 | 1014.4 | |
| 20260507011754 | 0 | 207 | 4.0 | 11.0 | 0.00 | 0.04 | 0.04 | 1014.7 | |
| 20260507011251 | 0 | 221 | 8.0 | 13.0 | 0.00 | 0.04 | 0.04 | 1014.3 | |
| 20260507010750 | 0 | 229 | 9.0 | 14.0 | 0.00 | 0.04 | 0.04 | 1014.0 | |
| 20260507010246 | 0 | 235 | 11.0 | 15.0 | 0.00 | 0.04 | 0.04 | 1014.2 | |
| 20260507005744 | 0 | 256 | 6.0 | 10.0 | 0.00 | 0.04 | 0.04 | 1014.3 | |
| 20260507005240 | 0 | 236 | 5.0 | 11.0 | 0.00 | 0.04 | 0.04 | 1013.9 | |
| 20260507004737 | 0 | 252 | 7.0 | 10.0 | 0.00 | 0.04 | 0.04 | 1014.0 | |
| 20260507004235 | 0 | 244 | 9.0 | 14.0 | 0.00 | 0.04 | 0.04 | 1014.0 | |
| 20260507003730 | 0 | 244 | 10.0 | 19.0 | 0.00 | 0.04 | 0.04 | 1014.2 | |
| 20260507003226 | 0 | 257 | 7.0 | 17.0 | 0.00 | 0.04 | 0.04 | 1013.8 | |
| 20260507002722 | 0 | 221 | 8.0 | 18.0 | 0.00 | 0.04 | 0.04 | 1013.9 | |
| 20260507002218 | 0 | 223 | 5.0 | 14.0 | 0.00 | 0.04 | 0.04 | 1014.2 | |
| 20260507001715 | 0 | 243 | 7.0 | 13.0 | 0.00 | 0.04 | 0.04 | 1014.2 | |
| 20260507001213 | 0 | 244 | 10.0 | 15.0 | 0.00 | 0.04 | 0.04 | 1013.9 | |
| 20260507000709 | 0 | 238 | 11.0 | 18.0 | 0.00 | 0.04 | 0.04 | 1013.9 | |
| 20260507000205 | 0 | 191 | 7.0 | 15.0 | 0.00 | 0.04 | 0.04 | 1014.2 | |
| 20260506235702 | 0 | 230 | 11.0 | 16.0 | 0.00 | 0.04 | 0.04 | 1014.3 | |
| 20260506235157 | 0 | 258 | 9.0 | 10.0 | 0.00 | 0.04 | 0.04 | 1014.0 | |
| 20260506234654 | 0 | 233 | 9.0 | 14.0 | 0.00 | 0.04 | 0.04 | 1014.2 | |
| 20260506234151 | 0 | 232 | 8.0 | 14.0 | 0.00 | 0.04 | 0.04 | 1014.2 | |
| 20260506233648 | 0 | 256 | 9.0 | 17.0 | 0.00 | 0.04 | 0.04 | 1014.2 | |
| 20260506233145 | 0 | 201 | 4.0 | 9.0 | 0.00 | 0.04 | 0.04 | 1014.2 | |
| 20260506232641 | 0 | 238 | 7.0 | 9.0 | 0.00 | 0.04 | 0.04 | 1014.2 | |
| 20260506232137 | 0 | 233 | 9.0 | 15.0 | 0.00 | 0.04 | 0.04 | 1014.2 | |
| 20260506231634 | 0 | 247 | 6.0 | 14.0 | 0.00 | 0.04 | 0.04 | 1014.2 | |
| 20260506231133 | 0 | 251 | 11.0 | 14.0 | 0.00 | 0.04 | 0.04 | 1014.2 | |
| 20260506230629 | 0 | 284 | 4.0 | 6.0 | 0.00 | 0.04 | 0.04 | 1014.3 | |
| 20260506230126 | 0 | 225 | 3.0 | 9.0 | 0.00 | 0.04 | 0.04 | 1014.2 | |
| 20260506225623 | 0 | 243 | 4.0 | 8.0 | 0.00 | 0.04 | 0.04 | 1014.2 | |
| 20260506225119 | 51 | 255 | 6.0 | 13.0 | 0.00 | 0.04 | 0.04 | 38 | 1013.8 |
| 20260506224616 | 54 | 245 | 8.0 | 13.0 | 0.00 | 0.04 | 0.04 | 36 | 1014.2 |
| 20260506224112 | 51 | 258 | 5.0 | 11.0 | 0.00 | 0.04 | 0.04 | 39 | 1014.0 |
| 20260506223608 | 51 | 227 | 5.0 | 12.0 | 0.00 | 0.04 | 0.04 | 38 | 1013.9 |
| 20260506223105 | 54 | 254 | 10.0 | 14.0 | 0.00 | 0.04 | 0.04 | 35 | 1014.3 |
| 20260506222602 | 53 | 294 | 13.0 | 15.0 | 0.00 | 0.04 | 0.04 | 37 | 1014.4 |
| 20260506222058 | 50 | 245 | 9.0 | 19.0 | 0.00 | 0.04 | 0.04 | 39 | 1014.3 |
| 20260506221556 | 53 | 259 | 9.0 | 19.0 | 0.00 | 0.04 | 0.04 | 36 | 1014.0 |
| 20260506221054 | 51 | 268 | 5.0 | 17.0 | 0.00 | 0.04 | 0.04 | 37 | 1014.2 |
| 20260506220549 | 51 | 262 | 9.0 | 10.0 | 0.00 | 0.04 | 0.04 | 38 | 1014.3 |
| 20260506220045 | 51 | 266 | 6.0 | 9.0 | 0.00 | 0.04 | 0.04 | 37 | 1014.3 |
| 20260506215542 | 52 | 236 | 8.0 | 14.0 | 0.00 | 0.04 | 0.04 | 37 | 1014.5 |
| 20260506215038 | 51 | 209 | 7.0 | 12.0 | 0.00 | 0.04 | 0.04 | 39 | 1014.5 |
| 20260506214535 | 51 | 269 | 8.0 | 18.0 | 0.00 | 0.04 | 0.04 | 37 | 1014.6 |
| 20260506214032 | 51 | 1 | 3.0 | 7.0 | 0.00 | 0.04 | 0.04 | 37 | 1014.6 |
| 20260506213530 | 53 | 302 | 8.0 | 13.0 | 0.00 | 0.04 | 0.04 | 35 | 1014.6 |
| 20260506213027 | 50 | 264 | 8.0 | 14.0 | 0.00 | 0.04 | 0.04 | 37 | 1014.8 |
| 20260506212524 | 52 | 235 | 7.0 | 12.0 | 0.00 | 0.04 | 0.04 | 37 | 1014.8 |
| 20260506212019 | 51 | 238 | 5.0 | 11.0 | 0.00 | 0.04 | 0.04 | 37 | 1015.0 |
| 20260506211515 | 51 | 237 | 9.0 | 16.0 | 0.00 | 0.04 | 0.04 | 37 | 1015.0 |
| 20260506211013 | 50 | 247 | 5.0 | 9.0 | 0.00 | 0.04 | 0.04 | 39 | 1015.3 |
| 20260506210509 | 51 | 277 | 9.0 | 10.0 | 0.00 | 0.04 | 0.04 | 37 | 1015.3 |
| 20260506210006 | 51 | 186 | 5.0 | 13.0 | 0.00 | 0.04 | 0.04 | 38 | 1015.4 |
| 20260506205502 | 50 | 229 | 8.0 | 14.0 | 0.00 | 0.04 | 0.04 | 38 | 1015.6 |
| 20260506204958 | 49 | 222 | 8.0 | 8.0 | 0.00 | 0.04 | 0.04 | 39 | 1015.5 |
| 20260506204456 | 51 | 245 | 8.0 | 15.0 | 0.00 | 0.04 | 0.04 | 37 | 1015.7 |
| 20260506203953 | 51 | 202 | 9.0 | 11.0 | 0.00 | 0.04 | 0.04 | 38 | 1015.9 |
| 20260506203450 | 50 | 328 | 3.0 | 6.0 | 0.00 | 0.04 | 0.04 | 40 | 1016.0 |
| 20260506202947 | 50 | 272 | 6.0 | 11.0 | 0.00 | 0.04 | 0.04 | 39 | 1016.0 |
| 20260506202444 | 49 | 251 | 4.0 | 9.0 | 0.00 | 0.04 | 0.04 | 39 | 1016.2 |
| 20260506201940 | 51 | 230 | 9.0 | 10.0 | 0.00 | 0.04 | 0.04 | 37 | 1016.1 |
| 20260506201438 | 50 | 24 | 1.0 | 8.0 | 0.00 | 0.04 | 0.04 | 41 | 1016.3 |
| 20260506200934 | 50 | 246 | 5.0 | 9.0 | 0.00 | 0.04 | 0.04 | 38 | 1016.3 |
| 20260506200431 | 50 | 248 | 5.0 | 7.0 | 0.00 | 0.04 | 0.04 | 39 | 1016.4 |
| 20260506195927 | 50 | 318 | 5.0 | 9.0 | 0.00 | 0.04 | 0.04 | 40 | 1016.6 |
| 20260506195424 | 49 | 289 | 7.0 | 9.0 | 0.00 | 0.04 | 0.04 | 41 | 1016.6 |
| 20260506194921 | 48 | 247 | 5.0 | 11.0 | 0.00 | 0.04 | 0.04 | 40 | 1016.6 |
| 20260506194418 | 48 | 331 | 4.0 | 9.0 | 0.00 | 0.04 | 0.04 | 41 | 1016.6 |
| 20260506193915 | 47 | 348 | 2.0 | 5.0 | 0.00 | 0.04 | 0.04 | 40 | 1016.8 |
| 20260506193412 | 47 | 287 | 6.0 | 12.0 | 0.00 | 0.04 | 0.04 | 41 | 1016.6 |
| 20260506192908 | 47 | 303 | 7.0 | 11.0 | 0.00 | 0.04 | 0.04 | 42 | 1016.6 |
| 20260506192406 | 48 | 8 | 3.0 | 4.0 | 0.00 | 0.04 | 0.04 | 39 | 1017.0 |
| 20260506191902 | 46 | 33 | 3.0 | 4.0 | 0.00 | 0.04 | 0.04 | 41 | 1016.8 |
| 20260506191359 | 47 | 273 | 3.0 | 7.0 | 0.00 | 0.04 | 0.04 | 41 | 1016.8 |
| 20260506190856 | 48 | 256 | 8.0 | 9.0 | 0.00 | 0.04 | 0.04 | 41 | 1016.8 |
| 20260506190352 | 47 | 262 | 3.0 | 4.0 | 0.00 | 0.04 | 0.04 | 42 | 1016.5 |
| 20260506185849 | 47 | 202 | 3.0 | 6.0 | 0.00 | 0.04 | 0.04 | 40 | 1016.6 |
| 20260506185346 | 48 | 345 | 3.0 | 5.0 | 0.00 | 0.04 | 0.04 | 40 | 1016.6 |
| 20260506184843 | 48 | 0 | 3.0 | 6.0 | 0.00 | 0.04 | 0.04 | 42 | 1016.8 |
| 20260506184340 | 49 | 244 | 4.0 | 9.0 | 0.00 | 0.04 | 0.04 | 41 | 1016.3 |
| 20260506183837 | 49 | 193 | 3.0 | 11.0 | 0.00 | 0.04 | 0.04 | 43 | 1016.6 |
| 20260506183333 | 49 | 175 | 0.0 | 10.0 | 0.00 | 0.04 | 0.04 | 42 | 1016.5 |
| 20260506182830 | 50 | 31 | 6.0 | 6.0 | 0.00 | 0.04 | 0.04 | 40 | 1016.6 |
| 20260506182327 | 49 | 320 | 8.0 | 12.0 | 0.00 | 0.04 | 0.04 | 42 | 1016.8 |
| 20260506181825 | 46 | 50 | 7.0 | 9.0 | 0.00 | 0.04 | 0.04 | 42 | 1016.8 |
| 20260506181323 | 46 | 72 | 4.0 | 7.0 | 0.00 | 0.04 | 0.04 | 40 | 1017.0 |
| 20260506180819 | 47 | 64 | 2.0 | 8.0 | 0.00 | 0.04 | 0.04 | 40 | 1016.9 |
| 20260506180315 | 47 | 50 | 4.0 | 12.0 | 0.00 | 0.04 | 0.04 | 42 | 1017.1 |
| 20260506175812 | 45 | 92 | 3.0 | 11.0 | 0.00 | 0.04 | 0.04 | 43 | 1017.0 |
| 20260506175309 | 48 | 32 | 7.0 | 9.0 | 0.00 | 0.04 | 0.04 | 43 | 1017.3 |
| 20260506174806 | 46 | 350 | 4.0 | 11.0 | 0.00 | 0.04 | 0.04 | 48 | 1017.4 |
| 20260506174303 | 47 | 17 | 7.0 | 10.0 | 0.00 | 0.04 | 0.04 | 43 | 1017.7 |
| 20260506173801 | 47 | 37 | 5.0 | 6.0 | 0.00 | 0.04 | 0.04 | 39 | 1017.4 |
| 20260506173257 | 46 | 19 | 3.0 | 9.0 | 0.00 | 0.04 | 0.04 | 43 | 1017.2 |
| 20260506172754 | 46 | 311 | 5.0 | 9.0 | 0.00 | 0.04 | 0.04 | 44 | 1017.4 |
| 20260506172251 | 46 | 335 | 3.0 | 6.0 | 0.00 | 0.04 | 0.04 | 46 | 1017.4 |
| 20260506171749 | 45 | 14 | 6.0 | 12.0 | 0.00 | 0.04 | 0.04 | 47 | 1017.4 |
| 20260506171245 | 44 | 358 | 5.0 | 11.0 | 0.00 | 0.04 | 0.04 | 46 | 1017.8 |
| 20260506170743 | 46 | 292 | 2.0 | 5.0 | 0.00 | 0.04 | 0.04 | 51 | 1017.6 |
| 20260506170239 | 45 | 24 | 9.0 | 13.0 | 0.00 | 0.04 | 0.04 | 47 | 1018.0 |